{"data":{"norad_id":57911,"epoch":"2026-09-20T09:04:49.492704Z","epoch_age_seconds":144895,"freshness":"FRESH","line1":"1 57911U 23146W   26263.37835061 -.00000175  00000+0  31680-5 0  9997","line2":"2 57911  43.0030 294.5039 0001078 263.2967  96.7762 15.27576703166832","mean_motion":15.27576703,"eccentricity":0.0001078,"inclination_deg":43.003,"raan_deg":294.5039,"arg_perigee_deg":263.2967,"mean_anomaly_deg":96.7762,"bstar":3.168e-6,"rev_number":16683,"period_min":94.266952171501,"perigee_km":482.3193315361,"apogee_km":483.7986053869,"semimajor_km":6861.1959684615,"source":"CELESTRAK","updated_at":"2026-09-21T09:00:33.739821Z"}}